Home   Weather   Abidjan   Past weeks
Flag for Cote d'Ivoire (Ivory Coast)

Past Weather in Abidjan, Cote d'Ivoire (Ivory Coast) — Yesterday and Last 2 Weeks

Now
81 °F

Passing clouds.


Feels Like: 87 °F
Forecast: N/A
Wind: 8 mph from Southwest

Location: Abidjan Airport

Current Time: Jun 20, 2019 at 7:33:47 pm

Latest Report: Jun 20, 2019 at 7:00 pm


Visibility: N/A

Pressure: 29.95 "Hg

Humidity: 89%

Dew Point: 77 °F

Location of AbidjanLocation

Past Weather in Abidjan — Graph

°F

Abidjan Temperature Yesterday

Maximum temperature yesterday: 86 °F (at 11:30 am)
Minimum temperature yesterday: 79 °F (at 12:00 am)
Average temperature yesterday: 83 °F

High & Low Weather Summary for the Past Weeks

 TemperatureHumidityPressure
High88 °F (Jun 7, 4:00 pm)100% (Jun 8, 11:30 pm)30.04 "Hg (Jun 8, 11:30 pm)
Low72 °F (Jun 16, 11:00 am)55% (Jun 7, 4:00 pm)29.83 "Hg (Jun 6, 5:00 pm)
Average81 °F85%29.94 "Hg
* Reported Jun 5 6:00 pm — Jun 20 6:00 pm, Abidjan. Weather by CustomWeather, © 2019

Note: Actual official high and low records may vary slightly from our data, if they occured in-between our weather recording intervals... More about our weather records

Advertising

Abidjan Weather History for the Previous 24 Hours

Scroll right to see more
 ConditionsComfort  
Time TempWeatherWind HumidityBarometerVisibility
6:00 pm
Thu, Jun 20
82 °FPassing clouds.12 mph84%29.92 "HgN/A
5:30 pm82 °FPartly sunny.10 mph84%29.92 "HgN/A
5:00 pm84 °FPassing clouds.12 mph79%29.92 "HgN/A
4:30 pm84 °FScattered clouds.13 mph79%29.92 "HgN/A
4:00 pm84 °FScattered clouds.13 mph79%29.92 "HgN/A
3:30 pm84 °FScattered clouds.14 mph79%29.92 "HgN/A
3:00 pm84 °FScattered clouds.14 mph79%29.92 "HgN/A
2:30 pm84 °FScattered clouds.14 mph79%29.92 "HgN/A
2:00 pm86 °FScattered clouds.13 mph75%29.95 "HgN/A
1:30 pm86 °FScattered clouds.13 mph75%29.95 "HgN/A
1:00 pm84 °FScattered clouds.12 mph84%29.95 "HgN/A
12:30 pm86 °FScattered clouds.13 mph75%29.95 "HgN/A
12:00 pm86 °FScattered clouds.13 mph75%29.98 "HgN/A
11:30 am86 °FScattered clouds.13 mph75%29.98 "HgN/A
11:00 am86 °FScattered clouds.12 mph75%29.98 "HgN/A
10:30 am84 °FScattered clouds.12 mph79%29.98 "HgN/A
10:00 am84 °FScattered clouds.10 mph79%29.98 "HgN/A
8:00 am82 °FScattered clouds.8 mph84%29.98 "HgN/A
7:30 am86 °FScattered clouds.5 mph70%29.98 "Hg4 mi
7:00 am86 °FPassing clouds.3 mph70%29.98 "Hg4 mi
6:30 am86 °FPassing clouds.3 mph70%29.95 "Hg4 mi
6:00 am86 °FPassing clouds.3 mph70%29.95 "Hg4 mi
5:30 am86 °FPassing clouds.2 mph70%29.95 "Hg5 mi
5:00 am86 °FPassing clouds.3 mph70%29.92 "Hg5 mi
4:30 am86 °FLight rain. Partly cloudy.6 mph70%29.92 "Hg5 mi
4:00 am86 °FPassing clouds.5 mph70%29.92 "Hg5 mi
3:30 am86 °FPassing clouds.6 mph70%29.92 "Hg5 mi
3:00 am86 °FPartly cloudy.7 mph70%29.92 "Hg4 mi
2:30 am86 °FPartly cloudy.7 mph70%29.92 "Hg4 mi
2:00 am86 °FPartly cloudy.8 mph70%29.92 "Hg5 mi
1:00 am86 °FPassing clouds.7 mph70%29.95 "Hg5 mi
12:30 am86 °FPartly cloudy.6 mph70%29.95 "Hg5 mi
12:00 am86 °FPartly cloudy.6 mph70%29.95 "Hg5 mi
11:30 pm
Wed, Jun 19
86 °FLight rain. Partly cloudy.8 mph70%29.95 "Hg5 mi
11:00 pm86 °FPartly cloudy.7 mph70%29.98 "Hg5 mi
10:30 pm86 °FPassing clouds.9 mph70%29.95 "Hg5 mi
10:00 pm86 °FPartly cloudy.7 mph70%29.98 "Hg5 mi
9:30 pm86 °FPartly cloudy.8 mph70%29.98 "Hg5 mi
9:00 pm86 °FPartly cloudy.9 mph70%29.98 "Hg5 mi
8:30 pm86 °FClear.9 mph70%29.95 "Hg5 mi
8:00 pm86 °FPassing clouds.6 mph70%29.95 "Hg5 mi
7:30 pm86 °FPassing clouds.7 mph70%29.95 "Hg5 mi
7:00 pm86 °FPassing clouds.8 mph70%29.95 "Hg5 mi
Weather by CustomWeather, © 2019

See weather overview